Regional Weather Roundup
Issued by NWS

Home | Current Version | Previous Version | Graphics & Text | Print | Product List | Glossary On
Versions: 1 2 3 4 5 6 7 8 9 10 11 12 13 14 15 16 17 18 19 20 21 22 23 24 25 26 27 28 29 30 31 32 33 34 35 36 37 38 39 40 41 42 43 44 45 46 47 48 49 50
000
ASUS45 KABQ 202110
RWRNM
WEATHER ROUNDUP FOR NEW MEXICO
NATIONAL WEATHER SERVICE ALBUQUERQUE NM
300 PM MDT WED AUG 20 2014

NOTE: "FAIR" MEANS FEW OR NO CLOUDS BELOW 12,000 FEET AGL WITH NO
       SIGNIFICANT WEATHER OR OBSTRUCTIONS TO VISION.

      THIS PRODUCT IS RELEASED AS TWO VERSIONS.  ONE VERSION NEAR
      THE TOP OF THE HOUR CONTAINING PRELIMINARY DATA FROM ALBUQUERQUE
      AND OTHER STATIONS.  A FINAL VERSION WITH ADDITIONAL DATA IS
      ISSUED ABOUT 10 MINUTES AFTER THE HOUR.

NMZ501-503-504-510>518-202200-
NORTHWEST PLATEAU/NORTHCENTRAL MOUNTAINS

CITY           SKY/WX    TMP DP  RH WIND       PRES   REMARKS
FARMINGTON     SUNNY     83  42  23 W15G21    30.06F
LOS ALAMOS     PTSUNNY   73  48  41 NW5       30.17F
SANTA FE       PTSUNNY   80  48  32 N6        30.09F
TAOS           PTSUNNY   79  45  29 W8G18     30.15F
ANGEL FIRE     CLOUDY    68  47  46 W9G16     30.23F

$$
NMZ402-403-502-505>509-202200-
WESTCENTRAL MOUNTAINS/SOUTHWEST MOUNTAINS

CITY           SKY/WX    TMP DP  RH WIND       PRES   REMARKS
GALLUP         CLOUDY    77  36  22 NW5       30.16F
SILVER CITY    MOSUNNY   81  43  26 W12G17    30.12F

$$
NMZ407-409-411-412-202200-
SOUTHERN DESERTS

CITY           SKY/WX    TMP DP  RH WIND       PRES   REMARKS
LORDSBURG      FAIR      82  54  36 W8G17     30.06F
DEMING         SUNNY     88  50  27 W6G20     30.02F
LAS CRUCES     MOSUNNY   85  52  31 S5        30.03F
HOLLOMAN AFB   SUNNY     88  53  29 NW8       29.97F
ALAMOGORDO     PTSUNNY   86  52  30 W6        29.99F
T OR C         PTSUNNY   84  46  26 N7        30.03F

$$
NMZ519>523-202200-
CENTRAL VALLEYS/CENTRAL HIGHLANDS

CITY           SKY/WX    TMP DP  RH WIND       PRES   REMARKS
ALBUQUERQUE    MOSUNNY   87  43  21 NW14      30.06F
DOUBLE EAGLE   PTSUNNY   82  45  26 W8        30.10F
MORIARTY ARPT  FAIR      81  45  28 SW10      30.11F
CLINES CORNERS MOSUNNY   77  48  35 W16       30.15F
BELEN          FAIR      83  47  27 W5        30.06F
SOCORRO        PTSUNNY   86  46  24 N6        30.03F

$$
NMZ524>526-539-540-202200-
SOUTHCENTRAL MOUNTAINS

CITY           SKY/WX    TMP DP  RH WIND       PRES   REMARKS
RUIDOSO        PTSUNNY   72  54  53 NW9       30.19S

$$
NMZ527>531-202200-
NORTHEAST HIGHLANDS/NORTHEAST PLAINS

CITY           SKY/WX    TMP DP  RH WIND       PRES   REMARKS
LAS VEGAS      PTSUNNY   79  48  33 SW15      30.10F
RATON          PTSUNNY   85  48  27 S15G22    30.02F
CLAYTON        PTSUNNY   91  45  20 SW17G26   29.94F

$$
NMZ532>537-202200-
EASTCENTRAL PLAINS

CITY           SKY/WX    TMP DP  RH WIND       PRES   REMARKS
TUCUMCARI      MOSUNNY   97  50  20 SW16G24   29.89F
CANNON AFB     MOSUNNY   91  52  26 SW16      29.94F
CLOVIS AIRPORT   N/A     88  59  37 S18       29.97S

$$
NMZ028-029-538-202200-
SOUTHEAST PLAINS

CITY           SKY/WX    TMP DP  RH WIND       PRES   REMARKS
ROSWELL        MOSUNNY   92  55  28 S8        29.89F
ARTESIA        MOSUNNY   91  54  27 SW10G17   29.90F
CARLSBAD       MOSUNNY   94  55  26 SE7       29.88F
HOBBS          MOSUNNY   93  52  24 S14G21    29.94F


$$


USA.gov is the U.S. government's official web portal to all federal, state and local government web resources and services.